YAOGAN 16B

导读

YAOGAN 16B(遥感十六号B星)是中国于2012年11月25日成功发射的遥感卫星,作为中国遥感卫星系列的组成部分,主要承担对地观测任务。该卫星搭载先进遥感载荷,可获取空间地理信息,在国土资源勘查、农业估产、灾害监测与国防安全等领域发挥重要作用,进一步完善了中国遥感卫星网络布局,提升了对地观测能力,推动航天遥感应用持续发展。

Basic Information
目录编号:
39012
目录名称:
YAOGAN 16B
国际标识:
2012-066B
轨道中心:
EARTH
卫星名称:
YAOGAN 16B
卫星全名:
--
卫星状态:
在轨 (已飞行5038 天)
发射日期:
2012-11-25 UTC
国别 :
中国 (CN)
星等 :
--
This satellite is enrolled in the Space Conjunction Data Service (SCDS) and the current flight risk assessment level is: No High Risk
Orbit Information
数据来源 国际轨道数据 AOE轨道数据
星历时间 2026-09-11T01:27:44+0800
15小时前
查看轨道信息
2026-09-10T11:00:00+0800
1天前
查看轨道信息
半长轴 7466.917km 7466.922km
偏心率 0.0442576 0.0442931
轨道倾角 63.352° 63.352°
近地点辐角 27.614° 27.589°
升交点赤经 69.072° 70.627°
平近点角 334.765° 295.883°
近地点 758.312km 758.051km
远地点 1419.248km 1419.519km
周期 107.022分钟 107.022分钟
每日圈数 13.455221 13.455206
Detailed Information
使用方式:
暂无
2D Orbit Map
3D Orbit Map
Orbit Altitude Analysis Chart
Orbit Inclination Analysis Chart
Orbit Comprehensive Analysis Chart
View Comprehensive Chart
Miss Distance Evolution Trend with All Objects
Collision Probability Evolution Trend with All Objects